QPF
0.00 0.00 0.00 0.00 0.00 0.00 0.00 0.00 0.00 0.00 0.00 0.00 0.00 0.00 0.00 0.00 0.00 0.00 0.00 0.00 0.00 0.00 0.00 0.00 0.00 0.00 0.00 0.00 0.00 0.00 0.00 0.00 0.00 0.00 0.00 0.00 0.00 0.00 0.00 0.00 0.00 0.00 0.00 0.00 0.00 0.00 0.00 0.00 0.00
0.00 0.00 0.00 0.00 0.00 0.00 0.00 0.00 0.00 0.00 0.00 0.00 0.00 0.00 0.00 0.00 0.00 0.00 0.00 0.00 0.00 0.00 0.00 0.00 0.00 0.00 0.00 0.00 0.00 0.00 0.00 0.00 0.00 0.00 0.00 0.00 0.00 0.00 0.00 0.00 0.00 0.00 0.00 0.00 0.00 0.00 0.00 0.00 0.00
0.00 0.00 0.00 0.00 0.00 0.00 0.00 0.00 0.00 0.00 0.00 0.00 0.00 0.00 0.00 0.00 0.00 0.00 0.00 0.00 0.00 0.00 0.00 0.00 0.00 0.00 0.00 0.00 0.00 0.00 0.00 0.00 0.00 0.00 0.00 0.00 0.00 0.00 0.00 0.00 0.00 0.00 0.00 0.00 0.00 0.00 0.00 0.00 0.00
0.00 0.00 0.00 0.00 0.00 0.00 0.00 0.00 0.00 0.00 0.00 0.00 0.00 0.00 0.00 0.00 0.00 0.00 0.00 0.00 0.00 0.00 0.00 0.00 0.00 0.00 0.00 0.00 0.00 0.00 0.00 0.00 0.00 0.00 0.00 0.00 0.00 0.00 0.00 0.00 0.00 0.00 0.00 0.00 0.00 0.00 0.00 0.00 0.00
0.00 0.00 0.00 0.00 0.00 0.00 0.00 0.00 0.00 0.00 0.00 0.00 0.00 0.00 0.00 0.00 0.00 0.00 0.00 0.00 0.00 0.00 0.00 0.00 0.00 0.00 0.00 0.00 0.00 0.00 0.00 0.00 0.00 0.00 0.00 0.00 0.00 0.00 0.00 0.00 0.00 0.00 0.00 0.00 0.00 0.00 0.00 0.00 0.00
0.00 0.00 0.00 0.00 0.00 0.00 0.00 0.00 0.00 0.00 0.00 0.00 0.00 0.00 0.00 0.00 0.00 0.00 0.00 0.00 0.00 0.00 0.00 0.00 0.00 0.00 0.00 0.00 0.00 0.00 0.00 0.00 0.00 0.00 0.00 0.00 0.00 0.00 0.00 0.00 0.00 0.00 0.00 0.00 0.00 0.00 0.00 0.00 0.00
0.00 0.00 0.00 0.00 0.00 0.00 0.00 0.00 0.00 0.00 0.00 0.00 0.00 0.00 0.00 0.00 0.00 0.00 0.00 0.00 0.00 0.00 0.00 0.00 0.00 0.00 0.00 0.00 0.00 0.00 0.00 0.00 0.00 0.00 0.00 0.00 0.00 0.00 0.00 0.00 0.00 0.00 0.00 0.00 0.00 0.00 0.00 0.00 0.00
0.00 0.00 0.00 0.00 0.00 0.00 0.00 0.00 0.00 0.00 0.00 0.00 0.00 0.00 0.00 0.00 0.00 0.00 0.00 0.00 0.00 0.00 0.00 0.00 0.00 0.00 0.00 0.00 0.00 0.00 0.00 0.00 0.00 0.00 0.00 0.00 0.00 0.00 0.00 0.00 0.00 0.00 0.00 0.00 0.00 0.00 0.00 0.00 0.00
0.00 0.00 0.00 0.00 0.00 0.00 0.00 0.00 0.00 0.00 0.00 0.00 0.00 0.00 0.00 0.00 0.00 0.00 0.00 0.00 0.00 0.00 0.00 0.00 0.00 0.00 0.00 0.00 0.00 0.00 0.00 0.00 0.00 0.00 0.01 0.02 0.01 0.00 0.00 0.00 0.00 0.00 0.00 0.00 0.00 0.00 0.00 0.00 0.00
0.00 0.00 0.00 0.00 0.00 0.00 0.00 0.00 0.00 0.00 0.00 0.00 0.00 0.00 0.00 0.00 0.00 0.00 0.00 0.00 0.00 0.00 0.00 0.00 0.00 0.00 0.00 0.00 0.00 0.00 0.00 0.00 0.00 0.00 0.00 0.03 0.03 0.01 0.00 0.00 0.00 0.00 0.00 0.00 0.00 0.00 0.00 0.00 0.00
0.00 0.00 0.00 0.00 0.00 0.00 0.00 0.00 0.00 0.00 0.00 0.00 0.00 0.00 0.00 0.00 0.00 0.00 0.00 0.00 0.00 0.00 0.00 0.00 0.00 0.00 0.00 0.00 0.00 0.01 0.00 0.00 0.00 0.00 0.00 0.01 0.01 0.00 0.00 0.00 0.00 0.00 0.00 0.00 0.00 0.00 0.00 0.00 0.00
0.00 0.00 0.00 0.00 0.00 0.00 0.00 0.00 0.00 0.00 0.00 0.00 0.00 0.00 0.00 0.00 0.00 0.00 0.00 0.00 0.00 0.00 0.00 0.00 0.00 0.00 0.00 0.00 0.00 0.00 0.01 0.01 0.00 0.00 0.00 0.00 0.00 0.02 0.01 0.00 0.00 0.00 0.00 0.00 0.00 0.00 0.00 0.00 0.00
0.00 0.00 0.00 0.00 0.00 0.00 0.00 0.00 0.00 0.00 0.00 0.00 0.00 0.00 0.00 0.00 0.00 0.00 0.00 0.00 0.00 0.00 0.00 0.00 0.00 0.00 0.00 0.00 0.00 0.00 0.01 0.01 0.00 0.00 0.00 0.00 0.01 0.02 0.02 0.02 0.01 0.00 0.00 0.00 0.00 0.00 0.00 0.00 0.00
0.00 0.00 0.00 0.00 0.00 0.00 0.00 0.00 0.00 0.00 0.00 0.00 0.00 0.00 0.00 0.00 0.00 0.00 0.00 0.00 0.00 0.00 0.00 0.00 0.00 0.00 0.00 0.00 0.00 0.00 0.00 0.00 0.02 0.02 0.01 0.00 0.08 0.08 0.05 0.01 0.01 0.00 0.00 0.00 0.00 0.00 0.00 0.00 0.00
0.00 0.00 0.00 0.00 0.00 0.00 0.00 0.00 0.00 0.00 0.00 0.00 0.00 0.00 0.00 0.00 0.00 0.00 0.00 0.00 0.00 0.00 0.00 0.00 0.00 0.00 0.00 0.00 0.00 0.00 0.01 0.01 0.04 0.06 0.09 0.04 0.02 0.05 0.02 0.02 0.05 0.03 0.00 0.00 0.00 0.00 0.00 0.00 0.00
0.00 0.00 0.00 0.00 0.00 0.00 0.00 0.00 0.00 0.00 0.00 0.00 0.00 0.00 0.00 0.00 0.00 0.00 0.00 0.00 0.00 0.00 0.00 0.00 0.00 0.00 0.00 0.05 0.12 0.12 0.16 0.17 0.11 0.15 0.20 0.17 0.17 0.14 0.04 0.03 0.04 0.05 0.01 0.00 0.00 0.00 0.01 0.00 0.00
0.00 0.00 0.00 0.00 0.00 0.00 0.00 0.00 0.00 0.00 0.00 0.00 0.00 0.00 0.00 0.00 0.00 0.00 0.00 0.00 0.00 0.00 0.00 0.00 0.00 0.00 0.02 0.09 0.14 0.10 0.19 0.19 0.24 0.30 0.35 0.26 0.23 0.18 0.12 0.08 0.06 0.06 0.02 0.00 0.00 0.00 0.01 0.00 0.00
0.00 0.00 0.00 0.00 0.00 0.00 0.00 0.00 0.00 0.00 0.00 0.00 0.00 0.00 0.00 0.00 0.00 0.00 0.00 0.00 0.00 0.00 0.00 0.00 0.00 0.00 0.09 0.14 0.12 0.12 0.10 0.11 0.16 0.31 0.35 0.29 0.25 0.25 0.11 0.07 0.07 0.05 0.02 0.01 0.00 0.00 0.01 0.00 0.00
0.00 0.00 0.00 0.00 0.00 0.00 0.00 0.00 0.00 0.00 0.00 0.00 0.00 0.00 0.00 0.00 0.00 0.00 0.00 0.00 0.00 0.00 0.00 0.00 0.00 0.02 0.16 0.11 0.07 0.05 0.04 0.06 0.18 0.19 0.31 0.26 0.15 0.14 0.07 0.03 0.07 0.04 0.01 0.01 0.00 0.00 0.00 0.00 0.00
0.00 0.00 0.00 0.00 0.00 0.00 0.00 0.00 0.00 0.00 0.00 0.00 0.00 0.00 0.00 0.00 0.00 0.00 0.00 0.00 0.00 0.00 0.00 0.00 0.03 0.10 0.16 0.10 0.07 0.02 0.02 0.05 0.16 0.31 0.38 0.34 0.31 0.22 0.11 0.02 0.02 0.04 0.03 0.02 0.00 0.00 0.00 0.00 0.00
0.00 0.00 0.00 0.00 0.00 0.00 0.00 0.00 0.00 0.00 0.00 0.00 0.00 0.00 0.00 0.00 0.00 0.00 0.00 0.00 0.00 0.00 0.01 0.02 0.08 0.11 0.08 0.06 0.02 0.02 0.03 0.06 0.12 0.18 0.29 0.34 0.36 0.36 0.28 0.14 0.06 0.02 0.02 0.02 0.01 0.01 0.01 0.01 0.00
0.00 0.00 0.00 0.00 0.00 0.00 0.00 0.00 0.00 0.00 0.00 0.00 0.00 0.00 0.00 0.00 0.00 0.00 0.00 0.00 0.00 0.00 0.01 0.01 0.03 0.06 0.06 0.07 0.06 0.02 0.00 0.02 0.05 0.09 0.16 0.18 0.29 0.56 0.61 0.25 0.13 0.05 0.03 0.02 0.01 0.00 0.00 0.00 0.00
0.00 0.00 0.00 0.00 0.00 0.00 0.00 0.00 0.00 0.00 0.00 0.00 0.00 0.00 0.00 0.00 0.00 0.00 0.00 0.00 0.00 0.00 0.00 0.00 0.00 0.00 0.02 0.09 0.11 0.07 0.04 0.01 0.03 0.04 0.06 0.16 0.23 0.28 0.43 0.38 0.20 0.09 0.03 0.03 0.02 0.00 0.00 0.01 0.01
0.00 0.00 0.00 0.00 0.00 0.00 0.00 0.00 0.00 0.00 0.00 0.00 0.00 0.00 0.00 0.00 0.00 0.00 0.00 0.00 0.00 0.00 0.00 0.00 0.00 0.00 0.00 0.03 0.11 0.18 0.17 0.09 0.01 0.00 0.00 0.01 0.07 0.18 0.33 0.39 0.33 0.31 0.07 0.02 0.01 0.01 0.00 0.00 0.00
0.00 0.00 0.00 0.00 0.00 0.00 0.00 0.00 0.00 0.00 0.00 0.00 0.00 0.00 0.00 0.00 0.00 0.00 0.00 0.00 0.00 0.00 0.00 0.00 0.00 0.00 0.00 0.00 0.00 0.06 0.13 0.15 0.12 0.03 0.00 0.00 0.00 0.02 0.08 0.23 0.27 0.31 0.27 0.05 0.03 0.01 0.01 0.01 0.00
0.00 0.00 0.00 0.00 0.00 0.00 0.00 0.00 0.00 0.00 0.00 0.00 0.00 0.00 0.00 0.00 0.00 0.00 0.00 0.00 0.00 0.00 0.00 0.00 0.00 0.00 0.00 0.00 0.00 0.00 0.00 0.01 0.02 0.02 0.01 0.00 0.00 0.00 0.00 0.00 0.04 0.11 0.29 0.29 0.13 0.02 0.01 0.01 0.01
0.00 0.00 0.00 0.00 0.00 0.01 0.00 0.00 0.00 0.00 0.00 0.00 0.00 0.00 0.00 0.00 0.00 0.00 0.00 0.00 0.00 0.00 0.00 0.00 0.00 0.00 0.00 0.00 0.00 0.00 0.00 0.00 0.00 0.00 0.00 0.00 0.00 0.00 0.00 0.00 0.00 0.01 0.03 0.11 0.12 0.04 0.02 0.01 0.01
0.00 0.00 0.00 0.00 0.02 0.01 0.00 0.00 0.00 0.00 0.00 0.00 0.00 0.00 0.00 0.00 0.00 0.00 0.00 0.00 0.00 0.00 0.00 0.00 0.00 0.00 0.00 0.00 0.00 0.00 0.00 0.00 0.01 0.01 0.00 0.00 0.00 0.00 0.00 0.00 0.00 0.00 0.01 0.06 0.06 0.05 0.05 0.04 0.02
0.00 0.00 0.00 0.01 0.01 0.02 0.01 0.00 0.00 0.00 0.00 0.00 0.00 0.00 0.00 0.00 0.00 0.00 0.00 0.00 0.00 0.00 0.00 0.00 0.00 0.00 0.00 0.00 0.00 0.00 0.00 0.02 0.03 0.02 0.01 0.01 0.00 0.01 0.04 0.04 0.01 0.01 0.01 0.05 0.10 0.07 0.04 0.04 0.06
0.00 0.00 0.00 0.04 0.03 0.06 0.09 0.03 0.00 0.00 0.00 0.00 0.00 0.00 0.00 0.00 0.00 0.00 0.00 0.00 0.00 0.00 0.00 0.00 0.00 0.00 0.00 0.00 0.00 0.00 0.00 0.01 0.02 0.01 0.00 0.01 0.01 0.01 0.02 0.04 0.04 0.03 0.03 0.04 0.06 0.08 0.05 0.07 0.11
MSLP
1011.36 1011.61 1011.89 1012.36 1013.70 1013.92 1012.99 1010.80 1008.41 1007.21 1006.22 1005.20 1004.60 1004.17 1004.49 1005.03 1005.88 1007.06 1006.66 1006.61 1007.24 1007.84 1008.42 1008.80 1009.31 1009.66 1010.05 1010.50 1011.02 1011.26 1011.38 1011.66 1011.89 1012.00 1012.12 1012.39 1012.88 1013.30 1013.70 1014.11 1014.52 1014.81 1015.18 1015.37 1015.69 1015.89 1016.22 1016.42 1016.71
1011.03 1011.58 1012.00 1012.87 1013.68 1013.66 1011.63 1009.24 1007.76 1005.95 1004.82 1004.32 1003.77 1003.64 1004.25 1005.06 1005.55 1006.33 1007.04 1007.54 1007.27 1007.71 1008.36 1008.80 1009.17 1009.57 1010.04 1010.42 1010.89 1011.66 1012.02 1012.17 1012.35 1012.58 1012.65 1012.72 1012.78 1013.16 1013.77 1014.16 1014.54 1014.86 1015.15 1015.43 1015.66 1015.96 1016.11 1016.50 1016.95
1010.47 1010.86 1012.24 1012.98 1013.23 1012.38 1010.45 1007.71 1006.34 1005.61 1004.29 1003.29 1003.38 1003.45 1004.44 1004.89 1005.56 1005.72 1006.01 1006.97 1007.93 1008.43 1008.58 1009.00 1009.09 1009.11 1009.42 1009.90 1010.41 1010.89 1011.59 1011.93 1012.21 1012.72 1012.98 1013.32 1013.57 1013.70 1013.86 1014.21 1014.63 1015.03 1015.33 1015.63 1015.93 1016.06 1016.29 1016.66 1016.87
1010.56 1011.62 1012.59 1012.68 1012.46 1011.26 1009.69 1007.31 1006.10 1005.70 1004.45 1002.84 1002.90 1003.85 1004.50 1004.51 1005.00 1005.23 1005.88 1006.72 1007.56 1008.05 1008.36 1008.69 1008.91 1009.35 1009.84 1010.05 1010.21 1010.61 1011.28 1011.59 1011.85 1012.36 1012.55 1013.06 1013.64 1014.15 1014.48 1014.86 1015.06 1015.26 1015.46 1015.68 1015.99 1016.21 1016.54 1016.66 1017.02
1010.71 1012.01 1012.93 1012.94 1011.62 1010.26 1008.45 1006.77 1005.11 1004.77 1003.38 1002.71 1002.72 1003.77 1004.50 1004.91 1004.91 1005.82 1006.48 1006.53 1007.13 1008.08 1008.46 1008.79 1009.07 1009.35 1009.55 1010.07 1010.70 1011.13 1011.31 1011.49 1011.70 1012.02 1012.66 1013.10 1013.57 1014.16 1014.71 1014.94 1015.31 1015.72 1015.87 1016.10 1016.21 1016.41 1017.13 1016.79 1017.07
1011.51 1012.31 1013.03 1012.65 1011.18 1009.28 1007.39 1005.76 1004.50 1003.90 1003.05 1002.93 1002.93 1003.97 1005.13 1005.20 1005.41 1006.09 1006.49 1006.87 1007.21 1007.57 1007.97 1008.42 1008.83 1009.17 1009.44 1009.71 1010.27 1010.93 1011.51 1011.89 1012.17 1012.32 1012.24 1012.96 1013.55 1013.76 1014.37 1014.96 1015.23 1015.88 1016.53 1016.62 1016.61 1016.58 1017.27 1017.18 1017.17
1011.67 1012.57 1012.65 1011.93 1010.58 1008.91 1007.23 1005.59 1005.18 1004.01 1003.24 1002.94 1002.98 1004.34 1005.87 1006.01 1005.88 1006.28 1006.56 1007.05 1007.64 1008.14 1008.34 1008.58 1008.92 1009.37 1009.70 1009.88 1010.14 1010.51 1010.89 1011.45 1012.16 1012.66 1012.94 1012.89 1013.30 1013.94 1014.28 1014.50 1015.09 1015.58 1016.37 1017.00 1017.11 1017.33 1017.48 1017.10 1017.14
1011.13 1012.04 1012.16 1011.41 1010.34 1008.66 1006.88 1005.72 1005.04 1004.53 1003.80 1002.89 1002.98 1004.43 1005.65 1005.56 1005.80 1006.06 1006.36 1006.98 1007.39 1007.78 1008.19 1008.56 1008.81 1009.25 1009.51 1009.75 1010.23 1010.58 1010.86 1011.38 1011.72 1012.46 1013.16 1013.46 1013.57 1013.93 1014.36 1014.70 1015.08 1015.57 1016.09 1016.74 1016.85 1017.69 1017.86 1017.53 1017.35
1010.61 1011.61 1011.48 1010.63 1009.51 1008.08 1006.81 1006.37 1004.99 1004.28 1004.29 1003.69 1003.31 1003.46 1003.31 1004.03 1005.49 1006.45 1007.09 1007.42 1007.58 1007.91 1008.06 1008.48 1008.88 1009.21 1009.55 1009.92 1010.30 1010.79 1011.22 1011.56 1011.94 1012.59 1012.76 1013.66 1014.03 1014.20 1014.42 1014.92 1015.43 1015.75 1016.16 1016.64 1017.10 1017.45 1017.61 1017.79 1017.96
1010.42 1010.78 1010.06 1009.42 1008.51 1007.65 1006.57 1006.35 1005.46 1004.93 1004.51 1004.11 1003.96 1004.18 1004.36 1004.92 1005.69 1006.11 1006.47 1006.84 1007.31 1007.42 1007.60 1007.93 1008.48 1009.03 1009.52 1009.76 1010.08 1010.53 1010.86 1011.17 1011.74 1012.24 1012.98 1013.25 1014.11 1014.35 1014.44 1014.84 1015.29 1015.57 1016.54 1016.99 1017.35 1017.75 1017.81 1017.77 1018.23
1009.61 1009.55 1009.13 1008.28 1007.51 1006.94 1006.18 1005.71 1005.43 1004.89 1004.48 1004.16 1004.23 1004.35 1004.96 1005.54 1006.23 1006.59 1006.68 1006.47 1005.86 1006.50 1007.24 1007.39 1007.87 1008.50 1009.15 1009.67 1010.00 1010.28 1010.54 1010.86 1011.11 1011.69 1012.27 1013.26 1013.75 1014.34 1014.71 1014.82 1015.51 1016.04 1016.24 1016.96 1017.60 1018.06 1018.23 1018.29 1018.58
1009.11 1008.53 1008.27 1007.51 1006.97 1006.95 1006.24 1005.08 1004.74 1004.57 1004.00 1003.57 1003.54 1003.52 1004.26 1004.90 1005.24 1005.49 1005.72 1005.70 1006.13 1006.46 1006.64 1007.00 1007.48 1007.84 1008.36 1008.87 1009.59 1010.02 1010.43 1010.65 1010.96 1011.60 1012.28 1012.58 1013.53 1014.16 1014.49 1014.77 1015.42 1016.19 1016.51 1016.95 1017.28 1018.16 1018.63 1018.77 1018.80
1008.49 1008.08 1007.40 1006.90 1006.69 1006.45 1005.85 1005.29 1004.95 1003.95 1003.49 1002.85 1002.88 1003.14 1003.73 1004.15 1004.43 1004.43 1004.24 1004.15 1004.87 1005.69 1005.80 1006.15 1006.80 1007.20 1007.54 1008.17 1009.14 1009.60 1010.12 1010.57 1010.95 1011.37 1011.75 1012.26 1013.03 1013.85 1014.45 1014.56 1015.04 1015.70 1016.45 1017.05 1017.40 1018.00 1018.45 1019.20 1019.54
1007.99 1007.80 1007.16 1006.53 1006.16 1005.75 1005.67 1005.06 1004.84 1003.29 1002.56 1002.97 1002.84 1002.91 1002.78 1003.14 1003.36 1003.45 1003.89 1004.04 1004.69 1004.68 1005.40 1005.96 1006.37 1006.89 1007.37 1007.57 1008.11 1008.83 1009.22 1009.70 1010.42 1010.96 1011.31 1011.86 1012.29 1012.92 1013.80 1014.37 1014.59 1015.31 1015.89 1016.78 1017.22 1017.73 1018.51 1019.16 1019.96
1008.05 1007.81 1007.00 1006.19 1005.66 1005.21 1005.40 1005.17 1004.17 1003.05 1002.87 1002.73 1002.50 1002.67 1002.49 1002.32 1002.22 1002.46 1002.30 1002.62 1002.98 1003.75 1004.50 1004.96 1005.38 1006.13 1006.82 1007.14 1007.52 1007.92 1008.71 1009.46 1010.09 1010.17 1010.67 1011.21 1011.79 1012.49 1013.09 1013.81 1014.37 1014.74 1015.63 1016.46 1017.31 1017.87 1018.41 1019.22 1020.10
1008.52 1008.32 1007.70 1005.64 1005.59 1004.99 1005.23 1005.42 1004.23 1003.37 1003.25 1002.88 1002.60 1002.79 1002.79 1002.15 1001.77 1001.34 1001.45 1001.57 1002.06 1002.67 1003.41 1003.75 1004.45 1004.93 1005.58 1006.23 1007.03 1007.62 1008.04 1008.94 1009.14 1009.63 1009.71 1010.65 1011.06 1011.92 1012.51 1013.44 1013.98 1014.75 1015.41 1016.19 1017.20 1017.77 1018.51 1019.31 1020.17
1009.32 1009.00 1008.15 1006.52 1005.56 1005.43 1005.29 1005.29 1004.42 1003.57 1003.49 1003.01 1002.99 1002.83 1002.72 1002.48 1002.09 1001.58 1001.26 1000.93 1000.66 1001.26 1001.91 1002.90 1003.79 1004.38 1005.01 1005.95 1006.88 1007.00 1007.45 1008.06 1008.52 1008.80 1008.40 1009.82 1010.41 1011.37 1011.84 1012.84 1013.64 1014.36 1014.85 1015.64 1016.81 1017.90 1018.04 1019.08 1020.24
1009.61 1009.26 1008.15 1007.43 1005.62 1005.50 1005.37 1005.12 1004.44 1004.02 1003.78 1003.57 1003.71 1003.45 1003.40 1003.32 1002.77 1002.77 1002.31 1001.49 1001.32 1001.24 1001.64 1002.29 1002.85 1003.75 1004.81 1005.74 1006.64 1006.91 1007.34 1007.40 1008.24 1009.23 1008.89 1008.91 1009.64 1010.26 1011.13 1012.10 1013.09 1013.89 1014.60 1015.41 1016.44 1017.46 1018.31 1018.90 1019.91
1008.93 1008.84 1008.28 1007.09 1006.27 1005.78 1005.52 1005.38 1005.10 1004.57 1003.96 1003.91 1003.69 1003.67 1003.41 1004.18 1004.57 1004.03 1003.25 1002.57 1001.88 1001.87 1002.04 1002.19 1002.81 1003.72 1004.83 1006.03 1006.67 1007.12 1006.88 1007.59 1007.78 1008.45 1008.61 1008.75 1009.21 1009.52 1010.60 1011.15 1012.52 1013.57 1013.83 1014.73 1015.83 1016.76 1017.94 1019.12 1019.98
1008.62 1008.43 1007.66 1006.95 1006.22 1006.24 1006.09 1005.58 1005.21 1004.57 1004.45 1004.85 1004.79 1005.13 1005.30 1005.89 1005.37 1005.00 1004.26 1003.84 1003.50 1003.38 1003.40 1003.72 1004.14 1003.88 1004.72 1005.42 1006.39 1006.80 1006.62 1007.10 1007.68 1008.06 1008.57 1008.26 1008.97 1008.82 1009.45 1009.99 1011.61 1012.80 1014.09 1014.51 1015.61 1016.14 1017.77 1019.24 1019.17
1007.97 1007.66 1007.38 1007.06 1006.91 1006.57 1006.33 1005.44 1005.25 1004.82 1005.68 1005.98 1006.42 1006.84 1007.04 1006.98 1007.01 1006.70 1006.04 1005.69 1005.41 1004.92 1004.99 1005.10 1005.24 1005.55 1005.59 1005.61 1006.13 1006.79 1007.24 1007.09 1007.59 1007.80 1008.10 1008.50 1008.70 1009.15 1008.89 1009.69 1010.51 1012.02 1013.04 1013.86 1014.69 1015.66 1016.23 1017.86 1018.82
1007.42 1007.08 1007.02 1007.15 1007.58 1007.76 1007.09 1005.39 1006.15 1005.98 1006.96 1007.23 1007.90 1008.03 1008.23 1008.01 1007.78 1007.46 1007.16 1006.87 1006.69 1006.44 1005.96 1005.52 1005.37 1006.00 1006.32 1006.69 1006.63 1006.34 1006.35 1006.89 1007.14 1007.45 1007.41 1008.34 1008.66 1008.42 1009.05 1008.78 1010.19 1011.04 1011.74 1013.15 1013.66 1014.61 1015.54 1016.57 1017.54
1007.02 1006.96 1007.16 1007.39 1007.99 1008.14 1008.08 1008.08 1006.85 1006.51 1008.26 1008.76 1009.12 1009.00 1008.63 1008.31 1007.94 1007.77 1007.65 1007.35 1007.51 1006.74 1006.36 1006.16 1006.39 1006.17 1006.36 1006.73 1006.83 1007.00 1006.97 1006.62 1007.39 1007.73 1007.36 1007.80 1008.36 1008.52 1009.49 1008.88 1010.27 1010.63 1011.06 1011.84 1012.48 1013.65 1014.60 1015.53 1016.60
1006.84 1007.24 1007.69 1007.89 1008.59 1008.44 1008.36 1008.57 1007.44 1008.14 1009.03 1009.57 1009.67 1009.67 1009.19 1008.55 1007.99 1007.56 1007.44 1007.23 1007.40 1007.26 1006.59 1006.49 1006.46 1006.14 1006.14 1006.28 1006.73 1007.09 1007.20 1007.19 1007.16 1007.28 1007.31 1007.45 1007.82 1008.58 1009.10 1009.74 1010.30 1009.48 1009.99 1010.92 1011.48 1012.49 1013.54 1014.50 1015.66
1007.27 1008.03 1008.89 1008.85 1009.28 1008.79 1008.40 1008.76 1008.98 1009.60 1009.70 1009.98 1010.01 1009.76 1009.21 1008.65 1008.13 1007.51 1007.13 1007.18 1006.72 1006.77 1006.56 1006.60 1006.62 1006.33 1005.91 1005.87 1006.05 1006.59 1006.37 1006.55 1006.92 1006.07 1006.75 1007.17 1007.40 1007.84 1008.10 1008.60 1009.29 1009.22 1009.61 1010.49 1010.27 1011.72 1012.31 1013.68 1014.56
1008.01 1008.97 1009.79 1009.71 1009.86 1009.35 1009.33 1008.65 1008.48 1009.58 1010.02 1010.04 1010.08 1009.88 1009.27 1009.09 1008.48 1007.49 1007.46 1007.32 1006.93 1006.68 1006.48 1006.77 1007.38 1006.58 1005.82 1005.83 1005.76 1005.97 1005.79 1005.58 1005.46 1005.80 1006.25 1006.50 1006.77 1006.93 1007.42 1008.03 1008.69 1009.13 1009.34 1010.23 1011.27 1010.42 1011.35 1012.56 1013.94
1008.61 1009.33 1009.73 1010.50 1010.78 1010.80 1009.13 1009.10 1009.10 1009.40 1009.57 1009.60 1009.45 1009.67 1009.94 1009.71 1009.08 1008.63 1008.26 1007.98 1007.53 1006.76 1006.53 1006.73 1006.86 1006.32 1006.08 1005.63 1005.00 1005.10 1005.04 1004.74 1004.73 1004.87 1004.95 1005.05 1005.87 1006.21 1006.17 1006.60 1007.21 1008.02 1009.18 1010.13 1010.05 1010.55 1011.59 1012.14 1012.88
1008.64 1009.33 1010.85 1012.05 1011.87 1010.98 1009.39 1009.10 1008.89 1010.02 1010.49 1010.51 1010.35 1010.42 1010.32 1009.83 1009.51 1009.15 1008.65 1008.11 1007.55 1007.10 1006.67 1006.47 1006.33 1006.23 1005.47 1005.15 1004.55 1004.07 1003.68 1003.81 1003.81 1004.00 1004.22 1004.56 1005.14 1005.56 1005.95 1005.95 1006.19 1007.02 1007.99 1008.92 1009.73 1010.49 1010.77 1011.80 1013.12
1009.65 1009.85 1010.81 1012.10 1012.13 1011.55 1011.01 1009.81 1009.80 1010.62 1010.93 1011.08 1011.45 1011.17 1010.94 1010.36 1009.75 1009.17 1008.72 1008.38 1007.77 1007.05 1006.70 1006.35 1006.10 1005.68 1005.09 1004.66 1003.98 1003.61 1003.29 1003.16 1003.13 1003.35 1003.56 1003.83 1004.28 1004.64 1005.25 1005.55 1005.81 1006.15 1006.87 1007.71 1008.59 1009.36 1010.34 1010.92 1011.64
1010.50 1011.00 1011.62 1012.92 1012.81 1012.37 1011.89 1010.35 1009.93 1010.56 1011.09 1011.41 1011.23 1010.97 1010.81 1010.47 1009.86 1009.11 1008.46 1007.67 1007.00 1006.52 1006.40 1006.10 1005.78 1005.17 1004.82 1004.38 1004.09 1003.75 1003.25 1003.10 1003.16 1003.19 1002.94 1003.08 1003.52 1004.01 1004.43 1004.80 1005.28 1005.70 1006.28 1006.73 1007.28 1008.15 1009.00 1010.40 1011.12
Thickness
5748 5747 5745 5737 5708 5696 5696 5719 5755 5755 5766 5785 5794 5793 5787 5790 5775 5755 5798 5802 5797 5790 5784 5781 5776 5772 5769 5765 5760 5758 5757 5755 5753 5753 5752 5749 5744 5740 5736 5731 5727 5724 5720 5718 5715 5712 5709 5707 5706
5749 5746 5740 5721 5695 5685 5703 5741 5750 5769 5785 5791 5800 5799 5787 5778 5794 5787 5786 5790 5792 5789 5783 5778 5774 5769 5764 5762 5758 5751 5747 5746 5745 5743 5743 5742 5742 5739 5732 5729 5724 5721 5718 5714 5711 5708 5706 5703 5700
5754 5750 5725 5709 5689 5690 5711 5753 5761 5771 5786 5798 5794 5802 5787 5785 5791 5793 5801 5794 5784 5780 5776 5773 5773 5772 5768 5764 5759 5755 5748 5746 5743 5738 5735 5731 5729 5729 5728 5725 5720 5716 5712 5709 5705 5703 5700 5697 5695
5747 5734 5722 5704 5699 5712 5728 5752 5761 5764 5780 5801 5797 5775 5791 5803 5796 5803 5802 5795 5785 5782 5777 5774 5772 5767 5761 5759 5757 5753 5746 5744 5741 5736 5734 5729 5723 5719 5717 5714 5712 5710 5706 5704 5701 5697 5693 5691 5690
5742 5721 5698 5695 5705 5722 5743 5756 5770 5762 5782 5791 5796 5777 5778 5795 5803 5797 5791 5793 5786 5777 5774 5771 5768 5765 5761 5755 5748 5744 5742 5741 5739 5735 5727 5723 5719 5714 5709 5707 5703 5699 5698 5697 5695 5691 5682 5685 5686
5718 5714 5691 5683 5707 5733 5750 5766 5773 5777 5787 5784 5784 5775 5774 5791 5791 5789 5787 5784 5783 5779 5775 5770 5766 5762 5760 5757 5750 5742 5736 5731 5728 5727 5728 5720 5715 5714 5707 5702 5699 5693 5686 5686 5686 5684 5676 5678 5680
5710 5699 5691 5701 5712 5724 5743 5759 5756 5767 5774 5776 5787 5762 5769 5777 5784 5783 5782 5779 5774 5770 5768 5763 5759 5755 5751 5749 5747 5742 5738 5731 5723 5717 5713 5715 5712 5706 5704 5703 5697 5693 5684 5678 5676 5671 5671 5675 5676
5713 5705 5700 5701 5707 5710 5743 5755 5760 5757 5758 5790 5789 5754 5754 5776 5782 5782 5780 5776 5773 5769 5765 5760 5756 5751 5748 5745 5739 5735 5733 5727 5722 5713 5705 5702 5702 5699 5696 5694 5691 5687 5681 5675 5674 5664 5663 5666 5670
5721 5693 5687 5697 5710 5719 5742 5737 5759 5772 5763 5770 5784 5776 5787 5788 5779 5769 5765 5763 5763 5760 5758 5754 5749 5743 5740 5735 5730 5725 5720 5717 5714 5707 5705 5695 5691 5690 5688 5684 5681 5679 5676 5671 5666 5663 5662 5659 5660
5705 5685 5702 5715 5727 5726 5741 5738 5748 5753 5751 5760 5767 5769 5774 5774 5769 5766 5764 5760 5756 5756 5756 5752 5746 5738 5731 5727 5723 5718 5715 5713 5707 5703 5696 5694 5684 5683 5681 5678 5674 5672 5664 5663 5658 5656 5656 5657 5655
5710 5704 5718 5726 5733 5739 5739 5739 5746 5747 5744 5753 5752 5763 5758 5757 5753 5752 5755 5759 5764 5758 5750 5749 5744 5735 5727 5719 5714 5711 5709 5706 5705 5699 5695 5685 5681 5676 5672 5671 5665 5661 5660 5655 5650 5648 5648 5649 5648
5704 5720 5723 5733 5737 5729 5734 5749 5744 5743 5751 5766 5765 5769 5758 5751 5751 5752 5752 5752 5749 5745 5743 5741 5737 5732 5724 5715 5708 5703 5700 5698 5695 5689 5683 5682 5674 5670 5667 5664 5659 5653 5652 5650 5647 5641 5638 5638 5641
5709 5717 5728 5734 5733 5732 5736 5737 5736 5751 5760 5768 5768 5768 5758 5754 5753 5755 5757 5758 5750 5741 5740 5735 5728 5723 5719 5712 5701 5697 5691 5686 5683 5679 5676 5673 5669 5664 5657 5658 5654 5650 5645 5641 5639 5635 5633 5628 5627
5715 5716 5722 5732 5731 5731 5724 5729 5735 5755 5761 5755 5757 5756 5759 5755 5756 5757 5753 5751 5744 5743 5734 5727 5721 5716 5709 5705 5698 5691 5686 5681 5675 5670 5667 5664 5663 5660 5653 5650 5649 5644 5642 5635 5632 5630 5626 5621 5616
5712 5704 5717 5729 5728 5729 5725 5711 5729 5750 5752 5749 5753 5752 5751 5753 5755 5754 5759 5756 5753 5745 5734 5725 5721 5713 5705 5699 5694 5687 5678 5671 5664 5662 5659 5656 5654 5650 5647 5645 5642 5639 5633 5629 5623 5621 5619 5614 5607
5693 5693 5685 5725 5725 5730 5715 5690 5729 5742 5739 5739 5744 5740 5737 5743 5747 5749 5749 5750 5746 5741 5731 5724 5715 5708 5700 5693 5683 5675 5671 5662 5653 5651 5653 5647 5646 5641 5637 5635 5635 5628 5625 5621 5615 5614 5611 5607 5601
5674 5661 5674 5701 5718 5713 5708 5693 5719 5731 5728 5730 5729 5726 5728 5728 5732 5734 5734 5737 5742 5738 5733 5721 5709 5702 5695 5683 5671 5669 5665 5659 5653 5645 5650 5641 5639 5633 5628 5622 5625 5620 5617 5615 5609 5604 5607 5601 5593
5655 5659 5673 5677 5713 5706 5697 5699 5708 5715 5716 5714 5709 5708 5707 5710 5716 5712 5715 5720 5720 5720 5718 5712 5704 5694 5681 5670 5662 5658 5653 5653 5643 5632 5635 5636 5634 5632 5622 5617 5617 5613 5611 5608 5602 5598 5596 5594 5587
5673 5666 5661 5679 5693 5690 5692 5682 5691 5701 5708 5704 5704 5701 5703 5692 5687 5690 5698 5702 5703 5703 5699 5697 5691 5682 5668 5656 5649 5645 5646 5638 5637 5630 5626 5626 5627 5623 5616 5617 5610 5606 5608 5604 5597 5594 5588 5582 5579
5667 5661 5668 5672 5688 5680 5671 5670 5681 5693 5689 5680 5683 5678 5673 5662 5668 5670 5678 5682 5682 5678 5677 5673 5666 5668 5659 5651 5643 5639 5639 5633 5627 5623 5618 5621 5618 5624 5619 5615 5607 5602 5594 5594 5590 5590 5579 5571 5576
5663 5660 5658 5661 5666 5669 5659 5658 5675 5683 5665 5656 5652 5650 5647 5642 5639 5642 5649 5652 5653 5655 5651 5649 5643 5641 5641 5640 5634 5627 5622 5624 5619 5616 5613 5609 5609 5606 5600 5601 5601 5596 5592 5590 5586 5581 5582 5571 5568
5647 5671 5663 5656 5641 5625 5642 5642 5651 5656 5635 5634 5626 5621 5617 5618 5617 5620 5622 5626 5627 5628 5633 5634 5633 5626 5624 5620 5618 5620 5622 5614 5610 5608 5609 5601 5601 5585 5595 5596 5594 5591 5591 5583 5582 5578 5576 5571 5569
5652 5661 5654 5653 5634 5622 5619 5612 5629 5635 5610 5607 5603 5602 5600 5599 5600 5598 5598 5603 5605 5611 5613 5613 5611 5612 5609 5605 5604 5602 5603 5605 5595 5592 5596 5595 5588 5584 5583 5588 5581 5583 5582 5582 5581 5575 5573 5571 5564
5656 5647 5638 5630 5618 5611 5622 5608 5611 5604 5595 5587 5585 5581 5582 5586 5586 5585 5585 5588 5586 5585 5592 5593 5593 5595 5594 5594 5589 5588 5585 5586 5589 5586 5587 5588 5582 5574 5567 5569 5569 5566 5578 5576 5578 5574 5569 5567 5561
5636 5619 5586 5587 5585 5597 5612 5595 5586 5582 5576 5569 5568 5568 5569 5569 5571 5576 5579 5576 5576 5574 5575 5572 5573 5576 5578 5580 5579 5575 5578 5574 5575 5572 5578 5575 5576 5571 5568 5568 5562 5558 5568 5567 5577 5569 5566 5560 5559
5617 5605 5584 5572 5569 5590 5593 5585 5582 5570 5561 5560 5560 5559 5555 5551 5554 5562 5564 5565 5567 5566 5560 5551 5542 5550 5558 5562 5564 5561 5564 5568 5568 5567 5566 5568 5565 5567 5563 5559 5557 5555 5556 5547 5541 5564 5563 5557 5550
5602 5585 5589 5562 5560 5553 5584 5579 5571 5561 5554 5550 5549 5543 5532 5531 5535 5535 5537 5537 5540 5544 5544 5538 5534 5536 5536 5541 5549 5549 5553 5557 5557 5555 5554 5558 5556 5557 5561 5561 5559 5552 5543 5537 5541 5547 5542 5548 5546
5593 5585 5556 5531 5536 5545 5567 5572 5564 5536 5528 5526 5519 5511 5513 5515 5513 5511 5513 5515 5518 5521 5522 5519 5515 5516 5522 5523 5530 5538 5543 5540 5543 5542 5544 5542 5539 5541 5545 5550 5550 5546 5541 5535 5532 5533 5539 5536 5530
5567 5559 5549 5532 5530 5526 5528 5550 5531 5513 5511 5504 5490 5491 5489 5492 5495 5496 5494 5493 5497 5502 5499 5498 5496 5499 5502 5503 5507 5512 5519 5520 5521 5525 5527 5526 5523 5524 5526 5531 5534 5535 5533 5530 5528 5528 5526 5528 5526
5554 5543 5534 5493 5507 5497 5487 5500 5510 5503 5492 5481 5479 5484 5481 5477 5474 5476 5477 5479 5479 5483 5474 5473 5473 5478 5480 5484 5485 5489 5494 5494 5492 5494 5500 5502 5503 5501 5502 5507 5514 5517 5518 5519 5521 5521 5521 5516 5517